Погода в Бруме

Австралия     17°57′16″S   122°14′21″E
темп.,
°C
ветер,
м/с
пор.,
м/с
влажн.,
%
обл.,
%
осадки,
мм/ч
давл.,
гПа
погр.,
м
2 декабря, чт
чт223:00+29зсз89765 0.0 1008480
02:00+29зсз67766 0.0 1006444
05:00+29з77756 0.0 1008576
08:00+29зсз56755 0.0 1010669
11:00+29зсз55713 0.0 1009481
14:00+29зсз66700 0.0 1007438
17:00+29з55713 0.0 1007349
20:00+29зсз77755 0.0 1008323
3 декабря, пт
пт323:00+29зсз557559 0.0 1008350
02:00+29з777798 0.0 1006449
05:00+29зюз810745 0.0 1007526
08:00+29зюз456726 0.0 1009353
11:00+30зсз446571 0.0 1008344
14:00+30зсз7667100 0.0 1006326
17:00+29з8107761 0.0 1005327
20:00+29зсз677854 0.0 1007359
4 декабря, сб
сб423:00+29зсз677684 0.0 1007426
02:00+29зюз797513 0.0 1005435
05:00+29зюз697414 0.0 1006468
08:00+29зсз336941 0.0 1008341
11:00+29зсз657183 0.0 1007326
14:00+30зсз887297 0.0 1004377
17:00+29зсз9107823 0.0 1003285
20:00+29зсз810822 0.0 1005407
5 декабря, вс
вс523:00+29зсз8108099 0.0 1005472
02:00+29зюз9117956 0.0 1004532
05:00+29з8107779 0.0 1005518
08:00+29зсз677419 0.0 1006497
11:00+29зсз77745 0.0 1005629
14:00+29зсз8874100 0.0 1003556
17:00+29зсз88765 0.0 1003530
20:00+29зсз10127958 0.0 1003456
6 декабря, пн
пн623:00+29з9127932 0.0 1004525
02:00+29з9117682 0.0 1002620
05:00+29зсз10117699 0.0 1002530
08:00+29зсз887595 0.0 1005678
11:00+29зсз887335 0.0 1004732
14:00+29сз88733 0.0 1003749
17:00+29сз1011750 0.0 1001657
20:00+29зсз9107811 0.0 1003659